Wind_Speed
16 23 21 19 18 18 18 17 17 19 18 16 15 15 15 13 13 12 12 12 11 11 9 9 9 9 8 6 7 9 8 9 11 11 9 10 13 14 16 19 20 21 20
13 24 20 19 18 18 18 18 17 17 18 17 15 14 14 13 11 10 10 10 10 9 9 8 8 9 8 7 8 7 10 9 10 10 9 10 14 14 17 18 19 20 22
18 21 21 21 20 19 19 18 18 16 17 16 15 14 13 12 11 10 10 10 10 10 9 9 8 9 8 7 7 9 9 9 9 9 13 14 16 16 19 17 19 20 20
15 23 22 20 19 18 18 19 18 17 16 15 15 14 12 11 11 10 10 10 11 11 10 9 9 9 9 8 8 9 10 9 10 11 13 15 16 17 20 19 20 20 21
15 21 19 19 18 18 18 19 18 16 15 14 13 13 12 11 10 10 10 10 11 11 11 9 10 10 9 9 9 10 11 11 12 13 14 17 19 18 20 19 20 21 22
14 17 17 17 17 17 17 17 17 16 14 13 11 10 11 11 11 11 12 12 11 10 12 12 12 11 11 9 7 8 10 14 14 14 15 19 21 20 20 20 21 22 22
7 13 12 11 13 14 15 15 15 16 15 14 12 12 11 11 11 11 12 12 12 11 11 13 13 12 11 10 9 11 12 15 16 17 18 20 20 21 20 21 22 24 23
17 8 7 7 10 12 13 15 15 18 17 16 14 13 12 10 10 11 12 13 12 11 12 12 12 12 11 10 10 11 12 15 17 19 20 20 21 21 20 22 24 25 25
25 18 11 7 10 10 13 15 16 18 19 16 14 14 12 10 10 11 11 11 11 12 13 12 12 12 12 11 11 12 14 16 17 19 21 21 20 20 21 24 26 27 28
33 32 30 19 8 11 16 15 17 18 17 16 14 14 13 12 12 12 11 11 10 10 12 12 12 13 13 13 13 14 16 16 16 19 21 20 20 20 23 26 27 29 33
39 38 36 32 25 15 11 16 17 17 16 15 14 14 14 13 14 13 13 13 12 11 10 11 12 13 15 14 14 16 18 19 17 20 20 20 21 21 25 29 34 34 32
47 45 41 37 32 26 18 12 19 15 14 15 15 17 16 15 14 14 15 14 13 13 13 12 11 13 16 16 15 17 19 20 19 21 21 22 22 21 27 36 38 37 37
34 40 44 40 34 29 26 18 14 20 16 13 13 16 17 16 16 16 16 16 15 14 14 12 12 17 18 19 18 18 19 19 18 21 23 23 20 21 30 39 42 43 39
37 38 44 41 38 32 28 21 17 18 22 22 20 18 18 18 17 17 18 18 18 16 15 13 14 16 18 19 18 19 19 17 17 20 24 24 24 21 25 46 46 40 31
40 41 44 42 39 36 33 26 19 15 22 26 23 21 20 20 19 18 17 18 19 19 18 16 17 15 18 18 16 17 19 17 16 21 21 30 31 24 6 36 35 32 31
38 41 43 43 40 37 34 29 24 18 18 25 26 23 21 21 19 17 16 16 17 18 20 20 19 19 18 19 16 18 15 16 16 19 21 29 28 24 24 17 27 29 29
36 37 42 42 41 39 36 33 27 19 17 24 28 23 20 19 18 17 14 14 16 16 20 21 21 23 23 22 21 18 18 15 15 21 26 28 31 32 33 27 28 29 30
35 40 40 43 43 41 38 34 30 23 20 19 30 25 22 19 18 18 16 15 15 15 22 26 26 25 25 24 24 21 21 17 18 27 26 39 37 34 32 33 33 32 30
34 38 41 42 42 44 42 36 29 20 19 19 27 25 25 21 21 20 18 16 16 17 25 25 29 30 29 26 26 26 26 25 27 28 27 48 44 40 39 37 34 34 32
35 38 38 39 41 43 43 42 32 21 17 17 13 24 26 24 23 22 19 17 17 21 24 28 33 29 35 33 31 28 27 27 30 32 34 41 44 38 39 35 34 32 32
36 38 40 41 43 41 41 43 40 36 32 27 15 13 24 25 24 23 21 20 20 27 31 34 35 37 32 35 31 28 29 25 29 34 36 38 43 40 40 39 37 33 29
33 37 39 39 40 37 37 35 29 36 24 31 24 21 17 23 24 23 23 23 27 29 33 36 40 26 23 29 17 23 3 11 24 32 35 33 38 37 37 34 32 32 30
35 37 37 38 38 36 38 36 36 31 27 23 25 23 12 14 23 24 24 26 29 34 37 40 40 34 27 18 30 11 4 3 6 23 26 26 32 32 32 33 31 30 29
33 34 38 38 38 36 37 33 31 25 25 30 32 33 25 24 20 24 25 28 33 36 37 39 39 40 33 30 13 16 7 32 4 4 18 22 28 29 30 30 29 28 26
32 32 35 36 36 37 38 35 29 28 27 32 32 33 26 16 19 25 28 29 34 37 38 39 36 30 33 33 24 21 31 21 11 11 5 7 26 23 25 27 27 25 24
30 34 37 37 38 38 38 37 34 32 33 30 37 33 32 24 13 23 28 32 36 37 38 39 34 32 32 30 27 31 33 20 24 17 7 7 14 15 19 21 23 22 21
Wind_Direction
191 172 174 175 174 171 170 170 171 170 168 164 160 159 159 159 157 158 164 170 176 172 170 174 170 171 170 153 168 177 173 162 158 149 137 133 130 137 134 138 132 124 122
176 169 177 177 178 177 176 177 173 176 173 170 166 163 161 163 162 161 164 166 171 169 172 173 170 177 173 161 177 168 171 171 171 176 174 148 141 146 142 140 139 130 124
182 177 179 184 184 182 181 182 178 181 177 174 171 170 170 170 171 168 169 168 171 169 174 176 181 185 186 170 165 169 163 163 166 163 166 160 156 156 147 147 146 137 130
186 179 179 187 185 185 186 188 182 187 179 178 173 174 176 178 178 177 176 179 180 176 182 196 191 197 195 187 178 176 176 173 175 174 175 169 168 162 153 155 150 146 138
186 180 180 185 188 190 190 190 186 187 182 182 180 178 182 184 184 184 187 193 189 187 188 202 207 204 201 194 192 192 189 185 182 182 179 175 172 166 161 156 154 152 147
190 189 189 188 192 195 195 194 191 191 192 183 186 186 188 192 194 197 199 201 201 196 197 203 213 213 205 194 197 197 203 193 189 188 183 176 175 164 161 160 159 155 152
212 204 200 200 200 203 203 201 203 196 201 199 193 199 201 197 203 208 211 214 214 206 214 214 217 214 208 205 198 196 202 193 191 187 184 181 174 166 164 164 163 157 153
16 325 245 227 220 212 217 214 210 206 207 209 204 204 212 209 212 216 221 218 222 212 218 217 219 217 212 212 201 195 197 191 190 185 184 183 179 171 165 165 164 157 151
33 28 11 333 284 253 235 229 221 216 216 217 214 210 216 218 223 222 224 220 217 217 222 217 216 217 210 207 200 194 194 191 189 189 185 185 183 173 169 167 164 157 149
18 14 8 2 341 305 274 245 233 226 217 218 219 221 221 221 228 231 226 225 222 223 224 224 216 217 213 213 205 194 193 191 191 193 190 188 186 182 167 165 161 152 145
5 4 360 357 354 335 304 264 247 234 226 219 220 225 225 225 227 229 230 229 226 220 223 223 220 217 216 217 211 203 197 197 195 199 195 189 193 184 172 166 158 152 152
356 354 354 353 352 348 334 302 253 239 226 223 223 233 233 228 231 230 231 228 229 225 232 233 225 221 220 219 212 204 207 206 207 202 197 193 197 190 173 162 152 146 139
350 351 352 350 349 347 341 327 286 250 243 239 232 235 238 233 232 232 233 232 230 227 229 233 224 222 222 220 218 213 213 216 215 206 201 195 196 198 179 159 146 137 135
352 351 350 349 347 344 339 334 321 276 247 243 244 242 244 240 235 233 232 232 231 229 232 232 223 215 225 220 219 220 221 221 223 214 210 190 188 200 202 152 139 138 132
353 350 350 349 347 342 337 332 321 304 257 244 241 242 239 240 237 236 236 234 234 232 230 231 221 218 209 220 216 213 220 220 220 213 210 196 193 193 59 115 133 134 135
351 350 349 351 346 340 337 331 317 304 284 248 245 240 235 235 235 233 240 243 242 234 228 227 213 213 216 214 216 200 205 212 214 209 199 189 194 205 180 152 135 139 140
349 347 353 350 347 341 336 330 323 304 285 274 244 239 228 228 231 236 252 261 259 247 227 219 209 201 202 190 188 188 198 200 201 192 172 164 152 154 161 157 147 141 135
352 350 351 355 352 345 339 331 326 311 294 281 245 232 222 221 233 234 243 250 239 230 218 209 199 180 170 166 162 153 145 155 171 167 157 157 155 151 150 147 142 135 133
354 353 350 354 354 350 345 334 327 320 324 298 259 231 222 219 233 242 251 242 227 221 213 195 179 188 166 158 148 145 135 130 128 145 142 131 138 136 134 133 136 134 132
355 355 357 352 353 354 349 343 335 320 310 312 278 237 226 223 228 240 247 234 222 213 191 171 170 164 158 153 135 121 120 120 119 123 114 123 137 135 133 129 128 129 130
358 354 356 355 353 355 352 349 344 332 315 313 301 274 239 231 225 231 238 225 216 208 198 186 177 166 142 148 117 88 82 98 105 104 115 115 122 129 129 131 129 128 128
353 354 351 354 352 352 349 344 336 328 320 317 316 300 268 243 233 225 227 218 208 190 183 176 172 148 151 151 141 125 112 62 70 97 108 112 118 122 124 126 128 129 130
353 350 348 348 350 350 350 347 344 343 331 337 322 321 286 258 237 225 222 214 204 195 186 180 172 165 160 149 149 142 148 142 103 69 97 103 116 119 123 129 130 132 131
346 346 349 349 347 350 353 346 345 338 330 324 321 317 307 276 240 227 218 213 207 193 184 180 173 166 162 160 156 150 134 142 126 91 77 97 116 119 123 126 132 134 137
345 344 346 347 346 349 354 349 342 334 335 329 329 322 316 325 256 230 216 213 207 196 189 184 179 181 173 165 162 133 125 131 132 133 120 119 104 111 121 127 132 134 139
347 349 349 345 347 348 350 348 343 339 337 333 339 330 326 322 318 236 216 214 211 203 195 188 181 178 171 174 166 153 155 159 160 141 124 134 117 111 122 127 137 141 144
Height
757 761 764 767 769 770 773 775 777 779 780 781 783 784 786 788 789 791 792 794 797 799 799 800 801 803 804 805 807 808 809 811 813 815 816 817 818 820 821 823 825 826 828
758 761 765 768 770 771 773 776 778 780 781 782 783 786 787 788 790 791 793 794 797 799 800 801 802 804 805 805 807 809 810 812 813 815 817 819 820 821 822 825 826 828 829
758 762 766 768 770 772 774 776 779 781 782 782 784 786 788 789 791 792 794 795 797 798 799 800 802 804 805 806 807 809 811 812 814 815 817 819 821 822 823 826 828 829 832
760 761 765 769 771 773 775 777 779 781 782 783 784 786 788 790 791 793 794 796 797 798 799 800 802 804 805 806 807 809 811 813 814 816 817 819 822 824 824 826 829 831 833
762 763 766 769 772 774 776 778 780 782 783 785 785 786 788 790 791 793 795 796 796 797 799 800 802 804 805 806 807 809 811 813 814 816 817 819 821 824 825 826 829 833 834
768 767 769 770 773 775 777 779 781 783 784 785 787 787 788 790 791 792 794 796 796 796 798 800 802 804 805 806 807 809 811 812 813 815 817 819 821 823 825 827 831 833 836
774 773 775 776 776 778 780 781 782 784 785 786 786 788 790 791 792 793 794 795 796 796 799 800 801 803 805 805 806 809 810 811 813 815 818 820 822 823 825 827 831 833 836
781 783 783 781 780 780 781 782 783 783 784 785 786 788 790 791 792 793 794 794 795 796 798 799 801 803 804 806 806 808 809 812 814 815 818 821 823 824 826 829 831 834 837
782 780 780 783 786 784 783 782 783 782 783 785 786 787 789 791 792 793 794 795 795 795 797 798 800 803 803 805 806 807 809 812 814 816 817 821 823 824 826 829 832 835 837
786 785 784 782 782 782 785 783 782 781 783 784 785 787 788 791 793 793 794 795 795 796 798 799 799 802 803 804 806 807 809 812 813 816 818 821 823 824 825 829 832 835 839
789 792 790 785 782 782 782 784 782 781 781 782 783 785 786 789 791 792 793 794 795 795 797 799 799 802 802 805 806 807 809 812 812 815 818 820 823 824 825 827 831 835 838
801 797 796 791 786 782 780 780 782 781 781 782 782 783 785 787 790 791 792 793 794 794 796 798 799 801 801 804 806 808 809 810 811 814 817 819 822 825 826 827 829 832 837
818 809 802 796 792 787 782 781 782 782 782 782 782 783 784 785 787 789 791 792 793 793 794 796 798 799 800 803 805 807 809 809 810 813 815 819 824 826 826 826 827 830 835
820 814 807 801 794 789 785 781 780 780 781 782 782 783 783 783 785 786 788 790 791 792 793 795 796 797 799 801 803 805 808 807 808 811 815 818 820 821 825 812 816 828 835
822 817 811 805 797 790 786 782 779 778 779 779 779 780 782 782 783 784 785 786 788 790 791 794 795 797 799 801 802 805 806 806 807 810 812 815 815 816 799 795 812 827 836
828 820 813 807 802 794 788 784 780 776 776 776 776 776 777 779 780 782 783 784 785 787 788 792 793 796 799 801 802 802 805 804 804 808 809 812 814 814 816 826 829 834 839
835 827 817 809 803 798 792 785 777 774 773 772 772 773 773 775 777 778 780 781 783 784 787 789 791 794 797 798 801 801 804 804 804 806 809 813 817 819 823 830 831 837 840
838 828 820 812 805 799 791 784 776 772 769 768 768 769 770 771 774 776 777 779 781 781 784 785 788 792 793 797 797 800 801 803 804 806 809 810 818 821 828 831 836 841 846
841 832 823 814 808 801 793 784 777 769 767 766 765 765 767 767 771 773 773 775 777 779 780 782 783 788 792 796 796 800 800 803 804 805 810 801 813 818 826 832 838 842 848
844 837 827 820 811 803 795 786 774 770 764 764 762 762 764 764 765 769 770 771 773 775 777 777 779 787 786 793 798 799 801 804 805 807 802 808 812 822 827 834 841 847 850
846 839 830 821 814 807 798 789 779 774 765 763 760 759 759 761 761 762 765 767 768 771 772 775 780 783 788 793 794 802 805 810 804 802 809 811 815 826 831 836 841 847 855
849 842 834 826 819 814 808 799 795 785 771 766 761 757 756 758 758 758 761 762 764 766 769 771 773 782 788 789 793 798 813 816 815 812 813 821 822 829 833 840 846 851 856
850 843 837 830 824 818 811 801 793 785 776 765 760 754 752 752 754 754 756 758 760 762 763 768 769 773 783 786 787 790 805 815 818 823 825 829 830 836 840 843 849 855 859
854 848 840 833 827 820 813 807 800 792 787 778 769 759 750 752 748 748 751 754 756 758 760 764 767 769 774 779 786 788 788 789 811 830 835 836 837 842 846 850 854 859 863
857 851 843 836 830 822 813 808 803 795 784 781 768 764 756 743 744 745 746 750 752 754 757 760 765 768 770 772 775 784 792 799 805 811 832 845 841 847 851 855 858 862 868
858 851 843 835 827 819 814 810 802 793 785 776 764 762 752 745 741 743 742 743 747 750 753 756 761 764 767 772 776 781 783 789 803 806 825 839 842 850 855 857 860 864 870